FENGYUN 1C DEB, 32197

Orbit data source: Space-Track

FENGYUN 1C DEB, 32197 is space debris in SSO originally from a launch on Mon, 10 May 1999 UTC launched from the Taiyaun Space Center, China (TSC). Fengyun 1C debris stems from the Chinese weather satellite Fengyun-1C, which was intentionally destroyed by a Chinese anti-satellite missile in 2007. This event dramatically increased the amount of space debris, with thousands of trackable fragments posing hazards to satellites and human spaceflight. The Fengyun 1C debris cloud has become a focal point in discussions about space sustainability and the need for international regulations to prevent the creation of new debris.

Loading next visibility...
Identifier
32197, 1999-025CUT
Orbit
SSO
Country
Flag of CNCN / PRC
Related business
Manufacturer
Unknown
Mission
Spacecraft
Bus & Motor
Unknown
Mass
Unknown
Launch date (UTC)
1999-05-10 (27 years ago)
Launch vehicle
Unknown
Launch site
Taiyaun Space Center, China (TSC)
Object type
Payload
Rocket body
Debris
Shape & HBR
Unknown shape, 0.1 m
Radar Cross Section
Small (<0.1 m²)

Expand to show TLE details & history
Last TLE update: 19 hours ago

TLE from 19 hours ago
0 FENGYUN 1C DEB
1 32197U 99025CUT 26122.00891052  .00000669  00000-0  22734-3 0  9997
2 32197  98.9005  39.9576 0161166 179.0847 197.6480 14.33020100964324
Epoch: 2026-05-02T00:12Z
TLE epoch observation values (Epoch: 2026-05-02T00:12:49.868Z)
Latitude
15.96392°
Longitude
174.26263°
Altitude
894.061 km
Speed
7.349 km/s
True Right ascension
02h 29m 36s
True Declination
15° 52' 30"
Sunlit
Object was in daylight at epoch
Visualization orbit readout
Latitude
Unknown
Longitude
Unknown
Altitude
Unknown
Speed
Unknown
Apparent Right ascension
Unknown
Apparent Declination
Unknown
Sunlit
N/A
Visualization observer readout
Local Sidereal Time
02:48:38
Azimuth
Unknown
Elevation
Unknown
Doppler factor
Unknown
Orbital elements
Apogee altitude
894.149 km
Perigee altitude
663.457 km
Semi-major axis
7,156.94 km
Eccentricity
0.01612
Inclination
98.9005°
RAAN
39.9576°
Arg. of periapsis
179.0847°
True anomaly
197.09866°
Mean anomaly
197.648°
Eccentric anomaly
197.37229°
Mean motion
3.58469 °/min
Orbital period
100.43 mins
BSTAR
0.00022734
Loading maneuver chart data...
Computing Atmospheric mass density...

Documentation

Showing up to 5 results
|